User: anonymous   Login
Location: Holcomb Observatory
(44.4922°N, 73.1654°W)
Time: 18:47:31
(UTC-05:00)
Language:

SL-16 R/B - Orbit

View from above orbital plane
View from above orbital plane
View from above satellite
View from above satellite

Ground track
Ground track

The orbit data is extracted from the following two-line orbital elements,

1 27006U 01056F   16338.06265019 -.00000048  00000-0 -56801-5 0  9996
2 27006  99.2839 119.6035 0015461 100.6108  10.2691 13.70973104749627
Epoch (UTC): 03 December 2016 01:30:12
Eccentricity: 0.0015461
inclination: 99.2839°
perigee height: 984 km
apogee height: 1007 km
right ascension of ascending node: 119.6035°
argument of perigee: 100.6108°
revolutions per day: 13.70973104
mean anomaly at epoch: 10.2691°
orbit number at epoch: 74962

The dashed part of the orbit path shows where the satellite is in the earth's shadow,  

DLR